When you browse on this site, cookies collect data to enhance your experience and personalize the content and advertising you see.
Visit our Privacy Policy to learn more. By continuing to use the site, you agree to this use of cookies and data.
  • In United Kingdom
  • List of Countries
  • For 7 days
  • Water Temperature
  • Satellite Maps
  • Weather Map
  • Weather Widgets
  • user-avatar
    Login

    Hourly Weather Abovyan

    Today, 19 May, Sunday

    Time Temperature Precipitation Wind Pressure Humidity
    00:00 +19°C° 0.3 mm 3 mps 670 mmHg 51%
    01:00 +18°C° 0.3 mm 3 mps 670 mmHg 52%
    02:00 +18°C° 0.3 mm 2 mps 669 mmHg 53%
    03:00 +18°C° 0 mm 1 mps 669 mmHg 47%
    04:00 +19°C° 0.1 mm 1 mps 669 mmHg 48%
    05:00 +18°C° 0.1 mm 2 mps 669 mmHg 49%
    06:00 +18°C° 0.1 mm 2 mps 669 mmHg 50%
    07:00 +20°C° 0 mm 2 mps 669 mmHg 45%
    08:00 +23°C° 0 mm 2 mps 670 mmHg 40%
    09:00 +25°C° 0 mm 3 mps 670 mmHg 36%
    10:00 +26°C° 0.1 mm 3 mps 670 mmHg 35%
    11:00 +27°C° 0.1 mm 3 mps 670 mmHg 33%
    12:00 +28°C° 0.1 mm 3 mps 670 mmHg 31%
    13:00 +28°C° 0.1 mm 3 mps 670 mmHg 31%
    14:00 +28°C° 0.1 mm 3 mps 669 mmHg 30%
    15:00 +29°C° 0.1 mm 3 mps 669 mmHg 30%
    16:00 +28°C° 0.4 mm 3 mps 669 mmHg 34%
    17:00 +26°C° 0.4 mm 2 mps 669 mmHg 38%
    18:00 +25°C° 0.4 mm 2 mps 669 mmHg 42%
    19:00 +24°C° 0.9 mm 2 mps 669 mmHg 46%
    20:00 +21°C° 0.9 mm 2 mps 669 mmHg 50%
    21:00 +19°C° 0.9 mm 2 mps 669 mmHg 53%
    22:00 +19°C° 0.5 mm 2 mps 669 mmHg 52%
    23:00 +18°C° 0.5 mm 2 mps 669 mmHg 50%

    Tomorrow, 20 May, Monday

    Time Temperature Precipitation Wind Pressure Humidity
    00:00 +18°C° 0.5 mm 2 mps 669 mmHg 49%
    01:00 +17°C° 0.3 mm 2 mps 669 mmHg 49%
    02:00 +17°C° 0.3 mm 2 mps 669 mmHg 49%
    03:00 +16°C° 0.3 mm 1 mps 669 mmHg 48%
    04:00 +18°C° 0.2 mm 1 mps 669 mmHg 49%
    05:00 +18°C° 0.2 mm 1 mps 669 mmHg 50%
    06:00 +18°C° 0.2 mm 1 mps 669 mmHg 51%
    07:00 +19°C° 0.1 mm 2 mps 669 mmHg 47%
    08:00 +21°C° 0.1 mm 2 mps 670 mmHg 42%
    09:00 +23°C° 0.1 mm 2 mps 670 mmHg 38%
    10:00 +24°C° 0.2 mm 2 mps 670 mmHg 36%
    11:00 +25°C° 0.2 mm 2 mps 670 mmHg 34%
    12:00 +26°C° 0.2 mm 3 mps 670 mmHg 32%
    13:00 +26°C° 0.3 mm 3 mps 670 mmHg 32%
    14:00 +26°C° 0.3 mm 3 mps 670 mmHg 32%
    15:00 +27°C° 0.3 mm 3 mps 670 mmHg 32%
    16:00 +26°C° 0.8 mm 3 mps 670 mmHg 36%
    17:00 +25°C° 0.8 mm 2 mps 670 mmHg 40%
    18:00 +24°C° 0.8 mm 2 mps 670 mmHg 45%
    19:00 +23°C° 0.8 mm 1 mps 670 mmHg 50%
    20:00 +21°C° 0.8 mm 1 mps 670 mmHg 56%
    21:00 +20°C° 0.8 mm 1 mps 671 mmHg 61%
    22:00 +19°C° 0.5 mm 1 mps 671 mmHg 63%
    23:00 +17°C° 0.5 mm 2 mps 671 mmHg 65%

    Day after tomorrow, 21 May, Tuesday

    Time Temperature Precipitation Wind Pressure Humidity
    00:00 +17°C° 0.5 mm 2 mps 671 mmHg 67%
    01:00 +16°C° 0.4 mm 2 mps 671 mmHg 70%
    02:00 +15°C° 0.4 mm 2 mps 671 mmHg 72%
    03:00 +15°C° 0.4 mm 2 mps 671 mmHg 75%
    04:00 +15°C° 0.3 mm 2 mps 671 mmHg 74%
    05:00 +16°C° 0.3 mm 1 mps 671 mmHg 73%
    06:00 +16°C° 0.3 mm 1 mps 672 mmHg 72%
    07:00 +18°C° 0.2 mm 1 mps 672 mmHg 66%
    08:00 +19°C° 0.2 mm 1 mps 673 mmHg 61%
    09:00 +20°C° 0.2 mm 2 mps 673 mmHg 55%
    10:00 +21°C° 0.4 mm 2 mps 673 mmHg 52%
    11:00 +23°C° 0.4 mm 1 mps 673 mmHg 48%
    12:00 +24°C° 0.4 mm 1 mps 674 mmHg 45%
    13:00 +24°C° 0.5 mm 2 mps 673 mmHg 44%
    14:00 +24°C° 0.5 mm 2 mps 673 mmHg 44%
    15:00 +24°C° 0.5 mm 2 mps 673 mmHg 43%
    16:00 +24°C° 0.3 mm 3 mps 673 mmHg 46%
    17:00 +22°C° 0.3 mm 3 mps 673 mmHg 49%
    18:00 +21°C° 0.3 mm 3 mps 673 mmHg 52%
    19:00 +20°C° 0.1 mm 3 mps 673 mmHg 57%
    20:00 +18°C° 0.1 mm 3 mps 674 mmHg 62%
    21:00 +17°C° 0.1 mm 3 mps 674 mmHg 67%
    22:00 +16°C° 0 mm 3 mps 674 mmHg 69%
    23:00 +16°C° 0 mm 3 mps 674 mmHg 70%

    22 May, Wednesday

    Time Temperature Precipitation Wind Pressure Humidity
    00:00 +14°C° 0 mm 3 mps 674 mmHg 71%
    01:00 +15°C° 0 mm 2 mps 674 mmHg 71%
    02:00 +15°C° 0 mm 2 mps 673 mmHg 72%
    03:00 +14°C° 0 mm 2 mps 673 mmHg 72%
    04:00 +15°C° 0 mm 2 mps 673 mmHg 71%
    05:00 +15°C° 0 mm 2 mps 674 mmHg 70%
    06:00 +16°C° 0 mm 1 mps 674 mmHg 68%
    07:00 +17°C° 0 mm 2 mps 674 mmHg 61%
    08:00 +19°C° 0 mm 2 mps 674 mmHg 55%
    09:00 +20°C° 0 mm 2 mps 674 mmHg 48%
    10:00 +21°C° 0 mm 2 mps 673 mmHg 46%
    11:00 +23°C° 0 mm 2 mps 673 mmHg 44%
    12:00 +24°C° 0 mm 2 mps 673 mmHg 42%
    13:00 +24°C° 0.3 mm 3 mps 673 mmHg 42%
    14:00 +24°C° 0.3 mm 3 mps 672 mmHg 42%
    15:00 +25°C° 0.3 mm 3 mps 672 mmHg 42%
    16:00 +24°C° 1.2 mm 3 mps 672 mmHg 47%
    17:00 +23°C° 1.2 mm 2 mps 672 mmHg 51%
    18:00 +22°C° 1.2 mm 1 mps 672 mmHg 55%
    19:00 +21°C° 0.3 mm 1 mps 672 mmHg 60%
    20:00 +19°C° 0.3 mm 1 mps 672 mmHg 64%
    21:00 +18°C° 0.3 mm 1 mps 672 mmHg 68%
    22:00 +18°C° 0.1 mm 1 mps 672 mmHg 69%
    23:00 +16°C° 0.1 mm 1 mps 672 mmHg 71%

    23 May, Thursday

    Time Temperature Precipitation Wind Pressure Humidity
    00:00 +16°C° 0.1 mm 1 mps 672 mmHg 72%
    01:00 +15°C° 0.1 mm 1 mps 671 mmHg 72%
    02:00 +15°C° 0.1 mm 1 mps 671 mmHg 73%
    03:00 +14°C° 0.1 mm 1 mps 671 mmHg 73%
    04:00 +15°C° 0 mm 1 mps 671 mmHg 70%
    05:00 +16°C° 0 mm 1 mps 671 mmHg 67%
    06:00 +16°C° 0 mm 1 mps 671 mmHg 64%
    07:00 +19°C° 0 mm 1 mps 672 mmHg 57%
    08:00 +19°C° 0 mm 2 mps 672 mmHg 49%
    09:00 +21°C° 0 mm 2 mps 672 mmHg 41%
    10:00 +23°C° 0 mm 2 mps 672 mmHg 38%
    11:00 +24°C° 0 mm 2 mps 672 mmHg 35%
    12:00 +25°C° 0 mm 3 mps 671 mmHg 32%
    13:00 +26°C° 0 mm 3 mps 671 mmHg 31%
    14:00 +27°C° 0 mm 3 mps 671 mmHg 31%
    15:00 +27°C° 0 mm 3 mps 671 mmHg 30%
    16:00 +27°C° 0 mm 3 mps 671 mmHg 33%
    17:00 +26°C° 0 mm 3 mps 671 mmHg 35%
    18:00 +26°C° 0 mm 2 mps 671 mmHg 38%
    19:00 +24°C° 0.1 mm 3 mps 671 mmHg 42%
    20:00 +21°C° 0.1 mm 3 mps 671 mmHg 45%
    21:00 +19°C° 0.1 mm 3 mps 671 mmHg 49%
    22:00 +18°C° 0.1 mm 3 mps 671 mmHg 51%
    23:00 +18°C° 0.1 mm 2 mps 672 mmHg 52%

    24 May, Friday

    Time Temperature Precipitation Wind Pressure Humidity
    00:00 +17°C° 0.1 mm 2 mps 672 mmHg 54%
    01:00 +17°C° 0 mm 2 mps 671 mmHg 54%
    02:00 +17°C° 0 mm 2 mps 671 mmHg 55%
    03:00 +16°C° 0 mm 2 mps 671 mmHg 56%
    04:00 +17°C° 0 mm 2 mps 671 mmHg 55%
    05:00 +18°C° 0 mm 1 mps 672 mmHg 54%
    06:00 +19°C° 0 mm 1 mps 672 mmHg 53%
    07:00 +19°C° 0 mm 2 mps 672 mmHg 48%
    08:00 +21°C° 0 mm 2 mps 672 mmHg 43%
    09:00 +24°C° 0 mm 2 mps 672 mmHg 38%
    10:00 +25°C° 0 mm 2 mps 672 mmHg 36%
    11:00 +26°C° 0 mm 3 mps 672 mmHg 35%
    12:00 +27°C° 0 mm 3 mps 672 mmHg 34%
    13:00 +27°C° 0.2 mm 3 mps 672 mmHg 35%
    14:00 +27°C° 0.2 mm 2 mps 672 mmHg 36%
    15:00 +27°C° 0.2 mm 2 mps 672 mmHg 37%
    16:00 +26°C° 0.6 mm 2 mps 672 mmHg 42%
    17:00 +25°C° 0.6 mm 2 mps 672 mmHg 46%
    18:00 +25°C° 0.6 mm 1 mps 672 mmHg 51%
    19:00 +23°C° 0.1 mm 1 mps 672 mmHg 53%
    20:00 +22°C° 0.1 mm 1 mps 672 mmHg 56%
    21:00 +21°C° 0.1 mm 1 mps 673 mmHg 58%
    22:00 +20°C° 0 mm 1 mps 673 mmHg 60%
    23:00 +19°C° 0 mm 1 mps 673 mmHg 61%
    Show more